• en France
  • Liste des pays
  • À 7 jours
  • Température de l'eau
  • Carte satellitaire
  • Carte météo
  • Widgets météo
  • user-avatar
    Se connecter

    Météo par heure à Tunja

    Ce jour, 27 Mai, Dimanche

    Heure Température Précipitation Vent Pression Humidité
    00:00 +10°C° 0,1 mm 1 m/s 549 mmHg 94%
    01:00 +10°C° 0,1 mm 1 m/s 549 mmHg 94%
    02:00 +10°C° 0,1 mm 1 m/s 548 mmHg 93%
    03:00 +10°C° 0,1 mm 1 m/s 548 mmHg 93%
    04:00 +10°C° 0,1 mm 1 m/s 548 mmHg 93%
    05:00 +11°C° 0,3 mm 1 m/s 549 mmHg 91%
    06:00 +11°C° 0,3 mm 1 m/s 550 mmHg 90%
    07:00 +12°C° 0,3 mm 1 m/s 550 mmHg 89%
    08:00 +13°C° 1,5 mm 1 m/s 551 mmHg 86%
    09:00 +14°C° 1,5 mm 1 m/s 551 mmHg 84%
    10:00 +14°C° 1,5 mm 1 m/s 552 mmHg 82%
    11:00 +14°C° 1,8 mm 1 m/s 552 mmHg 83%
    12:00 +14°C° 1,8 mm 1 m/s 551 mmHg 84%
    13:00 +14°C° 1,8 mm 1 m/s 551 mmHg 85%
    14:00 +14°C° 1,1 mm 1 m/s 550 mmHg 86%
    15:00 +14°C° 1,1 mm 1 m/s 550 mmHg 86%
    16:00 +14°C° 1,1 mm 1 m/s 549 mmHg 86%
    17:00 +13°C° 0,3 mm 1 m/s 549 mmHg 89%
    18:00 +12°C° 0,3 mm 1 m/s 549 mmHg 91%
    19:00 +12°C° 0,3 mm 1 m/s 549 mmHg 94%
    20:00 +11°C° 0,2 mm 1 m/s 549 mmHg 94%
    21:00 +11°C° 0,2 mm 1 m/s 550 mmHg 93%
    22:00 +11°C° 0,2 mm 1 m/s 550 mmHg 93%
    23:00 +11°C° 0,7 mm 1 m/s 550 mmHg 94%

    Demain, 28 Mai, Lundi

    Heure Température Précipitation Vent Pression Humidité
    00:00 +11°C° 0,7 mm 1 m/s 549 mmHg 94%
    01:00 +10°C° 0,7 mm 1 m/s 549 mmHg 95%
    02:00 +10°C° 0,8 mm 1 m/s 549 mmHg 95%
    03:00 +10°C° 0,8 mm 1 m/s 549 mmHg 95%
    04:00 +10°C° 0,8 mm 1 m/s 549 mmHg 95%
    05:00 +11°C° 0,5 mm 1 m/s 549 mmHg 94%
    06:00 +11°C° 0,5 mm 1 m/s 550 mmHg 93%
    07:00 +11°C° 0,5 mm 1 m/s 550 mmHg 92%
    08:00 +13°C° 0,5 mm 1 m/s 551 mmHg 88%
    09:00 +14°C° 0,5 mm 1 m/s 552 mmHg 84%
    10:00 +15°C° 0,5 mm 1 m/s 553 mmHg 80%
    11:00 +15°C° 0,4 mm 1 m/s 552 mmHg 78%
    12:00 +16°C° 0,4 mm 1 m/s 552 mmHg 77%
    13:00 +16°C° 0,4 mm 2 m/s 552 mmHg 76%
    14:00 +16°C° 1 mm 1 m/s 551 mmHg 81%
    15:00 +15°C° 1 mm 1 m/s 550 mmHg 86%
    16:00 +14°C° 1 mm 1 m/s 550 mmHg 91%
    17:00 +13°C° 1,2 mm 1 m/s 550 mmHg 93%
    18:00 +13°C° 1,2 mm 1 m/s 550 mmHg 95%
    19:00 +12°C° 1,2 mm 1 m/s 550 mmHg 97%
    20:00 +12°C° 1 mm 1 m/s 550 mmHg 97%
    21:00 +12°C° 1 mm 1 m/s 551 mmHg 97%
    22:00 +12°C° 1 mm 1 m/s 551 mmHg 96%
    23:00 +10°C° 0,9 mm 0 m/s 551 mmHg 97%

    Après-demain, 29 Mai, Mardi

    Heure Température Précipitation Vent Pression Humidité
    00:00 +10°C° 0,9 mm 0 m/s 550 mmHg 97%
    01:00 +10°C° 0,9 mm 0 m/s 550 mmHg 97%
    02:00 +10°C° 0,7 mm 0 m/s 550 mmHg 97%
    03:00 +9°C° 0,7 mm 0 m/s 549 mmHg 96%
    04:00 +9°C° 0,7 mm 0 m/s 549 mmHg 96%
    05:00 +10°C° 0,5 mm 0 m/s 549 mmHg 95%
    06:00 +10°C° 0,5 mm 0 m/s 550 mmHg 93%
    07:00 +10°C° 0,5 mm 0 m/s 550 mmHg 92%
    08:00 +13°C° 0,6 mm 1 m/s 551 mmHg 88%
    09:00 +14°C° 0,6 mm 1 m/s 552 mmHg 84%
    10:00 +15°C° 0,6 mm 1 m/s 553 mmHg 81%
    11:00 +15°C° 0,9 mm 1 m/s 552 mmHg 82%
    12:00 +15°C° 0,9 mm 1 m/s 552 mmHg 82%
    13:00 +15°C° 0,9 mm 1 m/s 552 mmHg 83%
    14:00 +14°C° 1,3 mm 1 m/s 551 mmHg 86%
    15:00 +14°C° 1,3 mm 1 m/s 550 mmHg 89%
    16:00 +13°C° 1,3 mm 1 m/s 550 mmHg 91%
    17:00 +13°C° 1 mm 1 m/s 550 mmHg 93%
    18:00 +12°C° 1 mm 1 m/s 550 mmHg 95%
    19:00 +11°C° 1 mm 0 m/s 550 mmHg 97%
    20:00 +10°C° 1,1 mm 0 m/s 550 mmHg 96%
    21:00 +11°C° 1,1 mm 1 m/s 550 mmHg 96%
    22:00 +11°C° 1,1 mm 1 m/s 550 mmHg 95%
    23:00 +11°C° 0,9 mm 1 m/s 550 mmHg 95%

    30 Mai, Mercredi

    Heure Température Précipitation Vent Pression Humidité
    00:00 +11°C° 0,9 mm 1 m/s 550 mmHg 94%
    01:00 +10°C° 0,9 mm 0 m/s 549 mmHg 94%
    02:00 +9°C° 0,5 mm 0 m/s 549 mmHg 94%
    03:00 +10°C° 0,5 mm 1 m/s 549 mmHg 94%
    04:00 +10°C° 0,5 mm 1 m/s 549 mmHg 94%
    05:00 +11°C° 0,3 mm 1 m/s 549 mmHg 94%
    06:00 +11°C° 0,3 mm 1 m/s 550 mmHg 93%
    07:00 +11°C° 0,3 mm 1 m/s 550 mmHg 92%
    08:00 +12°C° 0,4 mm 1 m/s 551 mmHg 90%
    09:00 +13°C° 0,4 mm 1 m/s 552 mmHg 87%
    10:00 +14°C° 0,4 mm 1 m/s 552 mmHg 84%
    11:00 +14°C° 0,8 mm 1 m/s 552 mmHg 83%
    12:00 +15°C° 0,8 mm 1 m/s 552 mmHg 83%
    13:00 +15°C° 0,8 mm 1 m/s 551 mmHg 82%
    14:00 +15°C° 0,9 mm 1 m/s 551 mmHg 83%
    15:00 +15°C° 0,9 mm 1 m/s 550 mmHg 84%
    16:00 +15°C° 0,9 mm 1 m/s 550 mmHg 85%
    17:00 +14°C° 0,4 mm 1 m/s 549 mmHg 89%
    18:00 +13°C° 0,4 mm 1 m/s 549 mmHg 93%
    19:00 +11°C° 0,4 mm 0 m/s 549 mmHg 97%
    20:00 +10°C° 0,5 mm 0 m/s 549 mmHg 96%
    21:00 +10°C° 0,5 mm 0 m/s 549 mmHg 96%
    22:00 +11°C° 0,5 mm 1 m/s 550 mmHg 95%
    23:00 +11°C° 0,5 mm 1 m/s 549 mmHg 95%

    31 Mai, Jeudi

    Heure Température Précipitation Vent Pression Humidité
    00:00 +10°C° 0,5 mm 1 m/s 549 mmHg 95%
    01:00 +10°C° 0,5 mm 1 m/s 549 mmHg 95%
    02:00 +10°C° 0,4 mm 1 m/s 549 mmHg 95%
    03:00 +10°C° 0,4 mm 1 m/s 548 mmHg 94%
    04:00 +10°C° 0,4 mm 1 m/s 548 mmHg 94%
    05:00 +10°C° 0,2 mm 1 m/s 549 mmHg 93%
    06:00 +11°C° 0,2 mm 1 m/s 550 mmHg 91%
    07:00 +12°C° 0,2 mm 1 m/s 550 mmHg 90%
    08:00 +13°C° 0,2 mm 1 m/s 551 mmHg 84%
    09:00 +14°C° 0,2 mm 1 m/s 552 mmHg 78%
    10:00 +16°C° 0,2 mm 2 m/s 553 mmHg 73%
    11:00 +16°C° 0,6 mm 2 m/s 552 mmHg 75%
    12:00 +16°C° 0,6 mm 1 m/s 552 mmHg 77%
    13:00 +16°C° 0,6 mm 1 m/s 551 mmHg 78%
    14:00 +16°C° 1,1 mm 1 m/s 551 mmHg 81%
    15:00 +15°C° 1,1 mm 1 m/s 550 mmHg 84%
    16:00 +15°C° 1,1 mm 1 m/s 550 mmHg 86%
    17:00 +14°C° 0,7 mm 1 m/s 549 mmHg 90%
    18:00 +13°C° 0,7 mm 1 m/s 549 mmHg 93%
    19:00 +12°C° 0,7 mm 1 m/s 549 mmHg 97%
    20:00 +11°C° 0,5 mm 1 m/s 549 mmHg 97%
    21:00 +11°C° 0,5 mm 1 m/s 549 mmHg 97%
    22:00 +11°C° 0,5 mm 1 m/s 549 mmHg 97%
    23:00 +11°C° 0,3 mm 1 m/s 549 mmHg 97%

    1 Juin, Vendredi

    Heure Température Précipitation Vent Pression Humidité
    00:00 +10°C° 0,3 mm 1 m/s 549 mmHg 96%
    01:00 +10°C° 0,3 mm 1 m/s 548 mmHg 96%
    02:00 +10°C° 0,2 mm 1 m/s 548 mmHg 95%
    03:00 +10°C° 0,2 mm 1 m/s 548 mmHg 95%
    04:00 +10°C° 0,2 mm 1 m/s 548 mmHg 94%
    05:00 +10°C° 0,3 mm 1 m/s 549 mmHg 93%
    06:00 +11°C° 0,3 mm 1 m/s 549 mmHg 92%
    07:00 +11°C° 0,3 mm 1 m/s 550 mmHg 91%
    08:00 +13°C° 0,2 mm 1 m/s 551 mmHg 86%
    09:00 +14°C° 0,2 mm 1 m/s 552 mmHg 81%
    10:00 +16°C° 0,2 mm 1 m/s 552 mmHg 75%
    11:00 +16°C° 0,5 mm 1 m/s 552 mmHg 74%
    12:00 +17°C° 0,5 mm 2 m/s 552 mmHg 73%
    13:00 +17°C° 0,5 mm 2 m/s 551 mmHg 72%
    14:00 +16°C° 1,1 mm 2 m/s 551 mmHg 77%
    15:00 +16°C° 1,1 mm 1 m/s 550 mmHg 83%
    16:00 +15°C° 1,1 mm 1 m/s 549 mmHg 88%
    17:00 +14°C° 1,2 mm 1 m/s 549 mmHg 91%
    18:00 +13°C° 1,2 mm 1 m/s 549 mmHg 94%
    19:00 +12°C° 1,2 mm 1 m/s 549 mmHg 97%
    20:00 +12°C° 0,7 mm 1 m/s 549 mmHg 97%
    21:00 +11°C° 0,7 mm 1 m/s 550 mmHg 97%
    22:00 +11°C° 0,7 mm 1 m/s 550 mmHg 97%
    23:00 +11°C° 0,3 mm 1 m/s 549 mmHg 96%
    Voir plus